Dewpoint
56 57 57 57 56 55 55 55 53 52 51 51 48 54 38 30 30 33 33 32 29 23 21 29 28 11 12 13 11 8 3 -5 5 -0 9 6 10 10 14 16 12 25 20 20 16 16 20 15 19 17 16 17 18 21 22 22 22 21 21 21 26 38 25 24 23 24 23 22 21 15 14 13 12 12 14 16 16 17 19 22 27 28 31 34 33 35 47
56 56 57 56 56 55 55 55 53 53 52 53 54 48 34 29 28 30 31 33 31 24 21 23 23 19 14 11 8 4 6 8 9 6 12 7 10 8 6 13 18 15 18 18 18 22 21 21 19 18 15 16 18 18 19 21 18 19 23 25 27 24 30 27 24 24 24 20 20 13 11 10 9 8 11 14 15 18 18 17 32 31 26 28 31 28 40
56 56 56 56 56 55 55 55 53 53 53 53 54 43 38 35 37 36 31 33 27 21 21 23 20 21 17 15 12 9 6 4 7 5 7 1 3 8 13 18 16 14 18 17 19 19 15 22 22 19 19 17 16 17 16 19 18 21 35 41 26 27 29 32 26 25 21 21 18 17 13 10 9 9 8 14 13 15 16 15 30 27 38 32 29 29 46
56 56 56 56 56 56 55 55 54 53 53 52 54 46 37 31 33 24 26 26 20 21 21 20 20 20 19 18 14 11 9 11 15 3 2 8 5 0 2 9 10 10 18 19 22 23 22 18 25 25 23 21 19 16 17 16 17 42 44 37 29 27 31 33 33 32 29 29 37 32 25 15 6 4 5 4 9 12 15 18 23 19 27 26 41 46 50
56 56 56 56 56 56 55 54 53 53 53 52 53 50 38 28 28 27 24 24 22 18 14 14 13 13 15 21 15 11 6 15 15 8 7 18 13 8 9 7 14 19 17 21 20 20 19 25 21 23 21 22 24 17 17 16 34 43 27 34 26 31 28 31 35 33 32 30 30 27 28 21 11 3 4 9 10 13 14 13 15 43 28 23 51 51 49
56 56 57 56 56 56 55 54 53 53 52 52 56 46 35 26 29 30 28 25 24 20 15 16 13 10 10 11 16 14 13 14 15 7 12 9 9 2 9 11 3 8 13 19 22 27 28 25 26 25 26 26 24 20 18 13 36 32 18 20 24 26 27 31 30 28 26 25 25 27 24 20 21 17 8 10 9 11 14 15 13 23 23 39 51 49 48
55 56 56 57 56 56 56 55 53 52 51 51 54 43 33 29 30 28 33 27 23 17 22 18 14 13 12 16 13 14 12 11 13 9 15 14 17 12 14 19 19 17 16 19 22 29 23 28 30 31 29 24 26 31 31 15 15 18 20 23 35 32 27 29 27 27 26 26 25 24 23 22 22 21 11 7 8 9 10 11 9 13 34 54 52 53 52
55 56 56 56 56 56 56 55 53 52 50 53 50 45 43 42 37 42 44 41 37 29 21 19 18 17 26 22 17 16 12 10 10 14 14 13 20 17 9 6 17 16 15 21 16 21 27 31 29 29 29 26 28 28 28 28 22 18 21 23 34 28 31 32 29 29 28 28 27 23 22 21 20 20 20 35 36 33 4 7 9 18 17 45 49 54 54
54 56 56 56 56 56 56 55 53 51 51 53 48 44 42 38 40 43 41 40 36 34 25 24 22 18 22 18 16 16 14 14 13 15 10 11 19 19 13 19 20 14 8 12 13 16 24 29 30 32 30 28 28 29 36 30 24 26 24 26 30 29 30 31 32 30 29 27 28 31 19 21 22 36 40 42 39 42 44 43 29 31 36 43 48 52 53
54 55 55 56 56 56 56 55 54 52 50 53 48 45 49 46 44 51 46 36 42 34 26 25 23 18 18 17 17 16 15 13 11 18 16 15 14 15 17 20 16 19 20 17 15 20 18 16 20 27 26 25 25 25 27 23 25 25 26 29 25 29 30 34 39 32 29 29 34 33 37 32 32 35 39 44 45 47 47 45 46 47 45 42 40 50 55
53 55 55 56 56 57 57 56 55 52 51 51 53 48 52 47 43 48 48 42 39 33 30 25 23 25 16 16 16 16 17 15 16 21 32 24 21 14 14 17 17 19 29 24 21 18 15 14 17 19 22 22 22 23 22 21 20 21 24 24 25 30 28 31 37 32 32 32 31 34 37 36 38 43 43 46 46 48 47 47 49 50 50 53 53 53 56
53 54 55 56 56 57 57 57 55 54 51 53 54 53 54 53 50 51 49 42 36 32 30 25 24 20 17 17 17 17 15 15 16 20 25 25 17 16 15 15 19 25 26 25 18 16 15 14 15 21 20 22 23 23 21 22 24 29 22 22 25 25 32 35 36 31 31 35 35 33 32 37 38 43 45 45 46 47 48 50 51 53 54 53 54 56 56
53 54 55 55 56 57 57 57 56 54 53 51 52 51 49 55 54 50 51 49 44 39 34 25 23 22 17 15 17 16 16 17 18 22 22 25 24 21 15 18 17 18 22 19 18 19 17 19 21 20 21 21 22 22 24 24 24 22 21 23 26 25 31 35 35 36 34 33 37 30 32 40 40 38 42 45 45 45 47 49 50 53 53 55 55 55 56
53 55 55 55 56 57 57 57 56 55 54 53 50 50 49 57 54 50 52 50 47 42 38 34 32 24 20 17 19 18 17 19 24 25 24 23 24 21 16 15 16 19 13 18 22 27 25 24 25 22 23 25 28 26 27 26 25 24 22 23 23 25 38 35 38 41 33 33 35 39 44 41 42 45 40 40 48 45 46 48 49 51 54 55 54 56 58
54 55 55 56 56 57 57 57 56 55 54 53 49 49 52 57 56 51 53 52 47 46 44 38 38 36 28 20 19 19 20 24 20 26 25 25 23 21 21 16 17 16 17 21 25 26 23 28 25 25 36 33 24 29 32 28 26 25 25 23 27 34 28 43 36 42 36 34 34 39 35 35 40 42 39 38 40 42 46 45 45 53 55 55 56 56 57
54 54 55 56 56 57 57 57 56 55 55 52 48 49 52 57 59 57 53 51 50 42 39 36 33 34 31 25 22 21 21 23 26 28 27 30 23 21 21 19 17 19 18 16 31 31 29 27 26 31 35 34 33 32 30 31 27 26 22 23 24 27 37 41 32 36 34 34 34 31 33 40 46 47 40 39 38 40 44 39 38 47 52 55 55 56 57
53 54 55 56 56 56 57 57 57 55 55 53 48 48 49 62 60 55 51 51 50 44 44 42 39 35 31 28 21 23 28 23 27 27 28 29 25 24 19 19 24 19 23 25 31 30 28 27 28 30 34 36 32 31 31 28 27 34 30 28 25 28 32 33 29 35 35 36 37 34 43 39 45 44 41 38 46 44 38 34 38 46 48 56 56 57 57
53 53 54 56 56 56 57 57 56 56 55 53 50 47 48 53 58 59 54 50 48 47 45 39 35 34 30 35 35 28 23 29 32 35 31 37 33 26 19 21 21 17 26 27 35 29 29 28 26 23 30 34 31 28 19 26 25 28 32 33 29 27 28 32 30 28 32 36 35 41 44 44 43 44 42 45 45 42 32 35 42 47 50 52 55 57 58
52 53 55 56 56 56 57 57 57 55 55 53 51 50 52 54 56 58 56 49 46 42 40 44 38 35 35 33 32 30 24 27 34 30 31 32 34 31 23 21 23 25 23 26 34 31 27 33 31 27 24 31 30 15 26 25 27 30 28 27 28 29 30 34 31 35 33 41 36 39 42 46 42 45 45 47 47 40 40 42 48 49 50 49 52 55 56
53 54 55 56 56 56 57 57 56 55 54 53 51 48 48 53 54 59 51 46 47 45 44 42 41 38 32 30 32 30 29 29 33 30 29 31 40 27 26 25 27 29 30 31 31 32 31 36 39 28 29 29 28 29 25 27 32 31 32 34 31 29 30 35 38 38 38 41 38 36 33 45 43 46 44 48 42 46 47 47 48 50 50 50 52 53 53
54 54 55 56 56 56 56 57 56 55 54 53 51 48 49 55 55 59 57 53 48 41 36 36 39 38 39 33 29 29 29 30 33 29 33 35 45 37 26 25 28 26 31 30 27 32 31 31 35 23 34 31 25 27 23 26 24 35 34 34 32 37 31 35 38 42 35 34 33 34 44 45 46 47 47 47 48 48 49 47 46 50 50 50 52 54 56
54 54 55 55 56 56 56 56 56 55 54 53 52 51 49 53 59 57 58 55 48 44 41 39 36 36 38 39 36 36 35 33 31 32 35 37 45 36 38 38 36 26 39 38 29 34 31 31 33 28 27 31 25 24 30 22 22 26 29 35 26 39 39 41 37 41 43 40 40 43 45 43 43 46 46 47 47 46 46 46 47 49 51 53 52 53 54
53 54 54 55 55 56 56 56 56 55 54 54 52 49 48 50 54 59 58 52 51 49 48 45 41 37 39 38 38 39 38 38 35 35 38 37 48 38 36 39 39 40 41 41 39 38 35 30 30 37 39 40 30 28 26 27 32 26 24 34 37 41 41 48 41 39 42 42 43 44 44 45 44 44 45 44 44 44 46 47 47 48 51 53 53 51 52
53 53 53 55 55 56 56 56 56 55 54 53 53 51 48 49 52 54 51 51 51 45 40 36 37 38 36 35 34 37 37 36 35 39 39 42 36 35 34 37 40 39 42 50 48 44 42 38 42 40 36 40 38 36 32 30 46 28 29 24 30 29 27 31 35 41 37 36 43 42 42 43 42 42 44 46 46 46 46 47 47 48 49 50 51 52 53
52 53 54 55 55 56 56 56 56 56 55 53 52 50 51 52 55 54 53 49 48 46 41 37 31 32 35 34 32 32 34 34 31 36 33 34 37 34 38 41 39 43 47 47 48 40 41 35 36 31 32 45 39 30 35 33 32 36 39 31 29 27 32 32 33 36 33 39 42 41 41 43 43 42 42 43 44 45 47 49 48 48 48 48 49 50 51
52 53 54 55 55 56 56 57 56 55 54 53 53 50 48 50 54 57 56 52 48 47 42 38 38 34 31 31 30 30 29 30 33 32 31 32 29 33 38 42 42 44 47 41 41 38 37 35 38 38 32 52 39 32 34 42 38 34 36 34 36 32 34 30 36 39 41 42 41 40 42 41 45 46 46 46 45 45 46 46 45 45 47 47 46 47 48
53 54 55 55 55 55 56 56 56 55 54 53 53 53 50 51 54 54 53 54 52 45 41 37 39 36 31 32 33 31 29 33 33 32 31 31 31 30 32 42 46 44 39 37 38 37 39 39 37 37 36 44 43 37 38 39 35 31 30 35 36 30 29 36 33 36 34 36 38 40 37 38 41 43 44 45 46 46 45 46 45 44 45 49 49 47 47
54 54 55 55 55 55 56 56 56 55 54 53 53 53 53 52 52 55 56 55 53 51 49 47 44 48 45 35 35 33 33 33 32 32 31 32 32 30 32 35 43 39 40 37 37 35 37 34 34 37 38 42 36 34 37 39 39 36 34 35 36 33 40 35 29 37 37 40 42 47 48 47 46 45 44 45 46 48 48 46 47 47 46 46 48 49 48
54 54 55 55 55 55 56 56 55 54 53 52 52 51 51 53 54 52 53 57 55 46 44 44 43 44 42 44 37 34 35 35 33 31 32 33 33 32 33 37 39 35 35 35 37 39 34 35 37 37 39 45 36 34 33 29 28 28 34 42 41 43 45 44 44 42 41 42 42 42 43 47 47 46 46 46 48 47 46 48 47 47 47 48 48 47 49
54 54 55 55 55 55 55 55 54 54 53 52 49 49 46 48 52 53 52 54 56 55 48 42 38 41 46 39 36 34 34 34 32 31 34 33 33 34 35 40 42 35 36 37 38 36 36 35 38 41 44 50 38 36 34 31 30 39 42 44 41 42 44 46 46 42 41 44 44 45 49 48 48 48 47 46 46 49 49 49 49 48 46 47 48 49 48
54 54 54 55 55 55 55 54 54 53 52 52 49 47 46 46 55 55 54 57 57 53 47 43 41 43 41 38 39 37 34 34 34 31 32 32 35 35 43 44 42 39 40 41 39 36 40 33 35 42 45 44 40 37 34 32 33 36 41 45 45 43 43 46 47 47 46 46 45 45 47 47 47 45 45 45 41 42 47 49 47 46 45 48 47 47 49
54 54 54 55 55 55 54 54 53 53 53 52 47 47 54 53 55 52 53 54 57 52 46 40 38 38 39 44 39 39 36 33 32 31 35 32 37 40 43 41 44 43 43 40 40 39 37 40 40 44 42 44 42 31 29 30 32 40 43 46 45 46 47 46 48 48 47 45 41 40 42 43 42 42 43 46 45 45 49 49 50 48 45 45 47 48 47
54 54 54 55 55 54 54 53 53 52 52 52 51 51 50 50 50 50 52 55 56 53 49 42 35 36 35 41 41 39 37 35 34 33 37 38 41 41 41 40 43 40 52 45 42 39 40 38 41 40 44 47 39 31 31 30 35 42 42 46 46 47 48 46 45 46 46 44 42 41 43 43 43 47 48 46 45 46 44 45 47 43 45 44 44 48 51
54 54 54 54 54 54 53 52 52 52 52 52 48 45 44 48 49 50 53 55 56 55 48 41 38 36 37 41 38 47 39 36 37 36 38 42 46 39 41 38 44 42 44 37 43 40 42 41 40 42 47 44 42 37 32 33 42 42 43 45 46 46 47 46 45 45 45 43 44 49 49 48 48 50 49 47 46 46 46 46 43 41 43 42 40 41 46
54 54 54 54 54 53 53 52 52 52 49 47 45 50 50 52 52 53 53 55 50 42 41 41 41 38 39 40 38 44 41 36 38 36 37 47 44 41 44 41 41 39 44 42 42 43 41 41 42 42 43 44 40 38 37 39 44 45 44 45 45 47 45 46 45 47 46 45 45 49 49 49 48 47 45 43 44 45 43 42 42 43 42 42 42 42 45
54 54 54 54 53 52 53 53 52 51 48 47 49 57 55 54 54 58 56 57 56 50 38 35 34 33 34 43 36 49 37 37 44 42 41 46 40 44 45 40 40 38 49 41 37 40 39 44 41 38 43 43 42 39 41 45 46 46 45 46 47 47 47 47 47 46 47 47 46 48 47 46 46 45 46 45 45 46 44 44 44 42 42 44 45 47 47
54 54 54 53 52 53 51 51 53 48 49 52 52 57 55 57 56 58 58 56 58 58 47 45 33 27 31 41 39 45 37 35 41 43 38 43 41 43 42 44 42 48 41 41 39 38 44 46 41 39 43 38 47 52 52 49 49 48 47 48 49 49 49 49 48 47 46 47 47 46 45 44 44 47 48 46 46 45 44 44 43 43 44 44 43 43 44
53 52 52 52 51 50 49 49 48 56 57 55 57 52 51 51 48 48 49 46 47 52 47 44 40 42 37 32 34 52 39 34 37 42 44 42 46 46 39 41 39 42 41 38 38 42 51 45 43 39 43 47 53 53 49 49 52 50 50 51 50 49 49 49 49 48 47 46 47 47 46 45 45 46 46 45 45 45 45 46 46 45 47 46 45 46 44
51 53 52 52 51 49 51 56 57 56 55 53 52 47 45 45 44 42 41 42 43 42 43 40 39 39 37 32 43 48 44 45 36 40 47 44 41 45 43 37 41 41 36 36 48 44 38 42 43 41 38 51 49 51 52 51 50 51 52 52 51 51 50 49 49 48 48 48 48 48 48 47 46 46 47 47 47 47 47 48 47 47 47 47 47 48 47
53 51 51 50 47 55 59 58 57 56 51 46 47 49 46 41 40 36 38 35 35 38 37 34 36 37 37 35 37 39 44 43 38 38 45 50 45 45 49 43 52 39 35 35 40 43 38 39 42 42 43 51 53 52 51 50 51 53 51 52 51 49 50 50 49 49 49 48 48 48 48 47 47 47 48 48 48 47 46 47 49 48 48 48 48 49 49
52 52 51 50 56 57 59 59 53 51 47 46 45 45 46 38 39 40 37 33 33 33 35 32 33 33 35 36 37 41 46 54 56 53 46 45 52 45 48 43 50 39 37 35 47 44 41 38 40 40 41 51 53 53 52 51 50 50 52 52 52 52 50 50 49 48 48 49 49 49 49 48 48 48 46 47 47 47 47 47 47 48 49 49 48 48 49
54 52 54 56 57 60 59 53 49 49 48 53 44 36 37 40 37 35 38 34 32 31 31 32 31 31 31 35 36 39 49 52 57 53 43 42 47 42 40 44 43 39 36 43 45 42 41 38 38 39 45 52 52 53 51 51 52 50 51 52 52 53 51 49 48 49 49 51 50 49 50 49 50 50 50 49 49 49 49 49 48 48 48 49 48 47 48
52 52 53 53 50 48 55 45 48 48 40 40 39 36 36 33 35 34 35 36 35 30 33 37 34 33 32 36 37 42 45 46 47 48 44 45 55 46 40 40 41 36 41 45 42 41 39 37 37 41 48 52 52 51 52 52 51 52 53 54 53 52 51 50 50 50 50 51 51 52 51 51 52 51 51 51 49 49 50 49 49 49 49 49 48 48 48
53 52 52 51 46 50 50 37 47 45 40 38 37 34 35 33 35 36 33 32 31 32 35 31 31 30 29 33 36 44 45 45 41 43 41 48 44 41 38 37 39 48 44 41 40 37 38 39 40 44 50 51 49 51 52 52 52 52 52 52 52 51 50 50 51 51 52 52 52 52 52 51 51 50 49 49 48 49 49 49 48 48 48 47 46 46 46
50 50 50 45 42 47 41 36 50 42 37 38 38 38 33 31 32 32 31 31 31 31 37 34 35 34 32 35 36 43 43 39 41 40 41 41 40 41 39 36 43 46 39 38 38 38 38 40 46 48 50 49 50 51 53 53 53 52 52 51 51 51 51 52 52 52 52 51 51 50 49 49 49 49 48 49 49 47 47 46 47 46 46 46 46 46 47
50 44 42 40 37 40 38 37 38 37 40 39 38 37 36 33 31 31 32 32 31 35 35 36 36 37 32 32 30 36 38 39 36 37 43 42 38 38 44 46 43 41 38 37 36 34 37 42 45 48 49 51 52 53 53 53 53 53 52 52 52 52 52 52 52 52 51 50 49 49 47 47 46 46 47 47 47 48 48 48 48 47 46 46 45 46 46
51 50 45 42 39 40 42 36 38 39 40 41 39 37 36 36 35 37 45 43 35 46 43 39 39 37 36 30 32 36 37 40 38 38 40 41 39 45 45 41 38 38 36 35 35 35 43 46 46 50 52 52 51 52 52 53 52 53 53 53 52 51 52 52 51 50 49 48 48 47 47 46 47 47 46 47 48 47 47 47 47 46 46 45 45 45 45
43 46 50 38 37 39 38 39 42 43 42 42 40 41 42 46 39 37 48 51 54 50 52 49 40 37 36 32 37 38 44 43 40 41 41 45 43 42 38 39 38 38 38 37 36 39 43 45 48 52 53 52 51 52 52 52 52 53 53 52 52 51 50 49 49 49 48 47 46 46 47 47 47 47 47 47 46 47 46 46 46 45 45 45 45 45 44
51 44 41 40 41 41 40 41 40 39 42 42 43 42 43 43 44 44 47 51 53 54 52 54 51 51 37 39 44 42 42 44 37 41 43 42 39 37 37 35 36 36 39 39 43 46 48 48 52 53 52 51 52 52 52 52 52 52 51 50 50 49 49 49 49 49 47 47 46 46 47 47 46 46 47 46 45 45 46 45 45 45 45 45 44 44 44
45 44 46 44 43 41 45 43 43 40 42 46 47 44 44 45 43 42 47 53 51 53 51 51 49 46 44 42 38 41 43 42 41 40 41 38 38 39 38 35 37 37 41 46 48 50 49 52 52 52 51 51 52 51 51 50 52 51 50 49 48 48 48 48 48 47 46 46 47 48 47 45 46 45 46 46 45 45 44 45 45 45 45 44 44 44 45
49 47 44 44 42 42 45 41 40 40 43 43 42 47 49 51 45 50 55 51 51 48 51 46 46 45 38 38 37 36 39 44 41 40 38 38 38 37 37 38 42 48 44 44 47 48 50 53 50 49 50 51 51 52 52 52 52 50 48 47 48 47 47 45 44 45 46 46 47 46 46 46 46 46 45 45 45 44 44 45 45 44 43 44 44 43 43
42 41 43 44 44 46 49 45 43 47 51 52 47 39 40 39 43 54 53 52 48 45 45 48 45 39 38 36 39 41 44 41 38 41 38 38 41 39 39 40 48 42 47 46 45 49 48 51 54 52 51 52 52 52 52 51 49 49 48 46 46 46 46 44 44 44 44 45 45 45 45 45 45 45 45 44 43 42 43 43 44 43 43 43 43 42 42